Location: Belmont
(13.0833°N, 59.6000°W)
Time: 12:07:59
(UTC+00:00)

Delta 142 - Pass Details

Date: 17 September 2019
Orbit: 549 x 1589 km, 28.4° (Epoch: 22 October)

Event Time Altitude Azimuth Distance (km) Brightness Sun altitude
Rises 23:31:23 0° 298° (WNW) 4,416 9.1 -23.4°
Reaches altitude 10° 23:34:42 10° 299° (WNW) 3,297 8.2 -24.2°
Maximum altitude 23:42:53 82° 26° (NNE) 1,066 4.5 -26.2°
Enters shadow 23:44:04 63° 99° (E) 1,124 4.4 -26.5°
